Location: Chèvreville
(49.1099°N, 2.8495°E)
Time: 12:59:37
(UTC+00:00)

H-2A R/B - Pass Details

Date: 28 January 2023
Orbit: 732 x 836 km, 98.2° (Epoch: 21 March)

Event Time Altitude Azimuth Distance (km) Brightness Sun altitude
Rises 17:27:10 0° 197° (SSW) 3,231 5.8 -8.2°
Reaches altitude 10° 17:29:46 10° 209° (SSW) 2,327 5.2 -8.6°
Maximum altitude 17:34:08 28° 267° (W) 1,465 4.4 -9.3°
Drops below altitude 10° 17:38:39 10° 326° (NW) 2,400 4.8 -10.0°
Sets 17:41:22 0° 338° (NNW) 3,352 5.4 -10.4°
